Weather History for Chennai, India

Change the Weather History Date:

Sunday, October 14, 2012

  Actual Average Record
Temperature  
Mean Temperature 84 °F -  
Max Temperature 94 °F 84 °F 96 °F (2013)
Min Temperature 75 °F 73 °F 41 °F (2003)
Cooling Degree Days 20    
Growing Degree Days 34 (Base 50)    
Moisture  
Dew Point 76 °F    
Average Humidity 75    
Maximum Humidity 94    
Minimum Humidity 43    
Precipitation  
Precipitation 0.00 in 0.51 in - ()
Sea Level Pressure  
Sea Level Pressure 29.83 in    
Wind  
Wind Speed 3 mph ()    
Max Wind Speed 12 mph    
Max Gust Speed -    
Visibility 3.7 miles    
Events      
Averages and records for this station are not official NWS values.
T = Trace of Precipitation, MM = Missing Value Source: Averaged Metar Reports

Daily Weather History Graph

Daily Weather History Graph

Search for Another Location

Airport:

Trip Planner

Search our weather history database for the weather conditions in past years. The results will help you decide how hot, cold, wet, or windy it might be!

Date:

Astronomy

Oct. 14, 2012 Rise Set
Actual Time 5:59 AM IST 5:50 PM IST
Civil Twilight 5:38 AM IST 6:12 PM IST
Nautical Twilight 5:13 AM IST 6:37 PM IST
Astronomical Twilight 4:48 AM IST 7:01 PM IST
Moon 4:34 AM IST (10/14) 4:49 PM IST (10/14)
Length of Visible Light 12h 34m
Length of Day
11h 51m
Waning Crescent, 2% of the Moon is Illuminated
Oct 14
Waning Crescent
Oct 15
New
Oct 22
First Quarter
Oct 30
Full
Nov 7
Last Quarter

Hourly Weather History & Observations

Time (IST) Temp. Heat Index Dew Point Humidity Pressure Visibility Wind Dir Wind Speed Gust Speed Precip Events Conditions
12:10 AM 80.6 °F 86.2 °F 75.2 °F 84% 29.83 in 3.7 mi Calm Calm - N/A   Scattered Clouds
12:40 AM 78.8 °F - 75.2 °F 89% 29.83 in 3.7 mi WSW 4.6 mph - N/A   Scattered Clouds
1:10 AM 78.8 °F - 75.2 °F 89% 29.83 in 3.7 mi WSW 2.3 mph - N/A   Scattered Clouds
1:40 AM 78.8 °F - 75.2 °F 89% 29.83 in 3.7 mi West 3.5 mph - N/A   Scattered Clouds
2:10 AM 78.8 °F - 75.2 °F 89% 29.80 in 3.7 mi WSW 3.5 mph - N/A   Scattered Clouds
2:30 AM 79 °F - 75 °F 85% 29.85 in 2 mi Calm Calm - -   Scattered Clouds
2:40 AM 78.8 °F - 75.2 °F 89% 29.80 in 3.7 mi West 3.5 mph - N/A   Scattered Clouds
3:40 AM 77.0 °F - 75.2 °F 94% 29.80 in - Calm Calm - N/A   Haze
4:10 AM 77.0 °F - 75.2 °F 94% 29.80 in - Calm Calm - N/A   Haze
5:10 AM 77.0 °F - 75.2 °F 94% 29.80 in 1.6 mi Calm Calm - N/A   Haze
5:30 AM 78 °F - 75 °F 89% 29.86 in 2 mi Calm Calm - -   Scattered Clouds
5:40 AM 77.0 °F - 75.2 °F 94% 29.83 in 1.6 mi Calm Calm - N/A   Haze
6:40 AM 78.8 °F - 77.0 °F 94% 29.86 in 0.7 mi Calm Calm - N/A   Mostly Cloudy
7:10 AM 80.6 °F 87.1 °F 77.0 °F 89% 29.86 in 0.9 mi Calm Calm - N/A   Mostly Cloudy
8:30 AM 85 °F - 76 °F 68% 29.89 in 6 mi SSW 2.3 mph - -   Scattered Clouds
8:40 AM 86.0 °F 96.9 °F 77.0 °F 74% 29.86 in 1.9 mi West 5.8 mph - N/A   Haze
9:40 AM 87.8 °F 97.6 °F 75.2 °F 66% 29.89 in 3.7 mi SW 5.8 mph - N/A   Scattered Clouds
10:10 AM 87.8 °F 95.6 °F 73.4 °F 62% 29.89 in 3.7 mi ESE 2.3 mph - N/A   Scattered Clouds
10:40 AM 89.6 °F 99.8 °F 75.2 °F 62% 29.86 in 4.3 mi South 4.6 mph - N/A   Scattered Clouds
11:10 AM 89.6 °F 99.8 °F 75.2 °F 62% 29.86 in 4.3 mi SW 4.6 mph - N/A   Scattered Clouds
11:30 AM 93 °F - 73 °F 43% 29.86 in 6 mi Calm Calm - -   Mostly Cloudy
11:40 AM 91.4 °F 100.1 °F 73.4 °F 55% 29.83 in 5.0 mi SW 4.6 mph - N/A   Scattered Clouds
12:10 PM 91.4 °F 100.1 °F 73.4 °F 55% 29.80 in 5.0 mi North 3.5 mph - N/A   Scattered Clouds
12:40 PM 93.2 °F 102.4 °F 73.4 °F 52% 29.80 in 5.0 mi WNW 3.5 mph - N/A   Scattered Clouds
1:10 PM 93.2 °F 105.0 °F 75.2 °F 56% 29.77 in 5.0 mi ESE 9.2 mph - N/A   Scattered Clouds
1:40 PM 91.4 °F 102.5 °F 75.2 °F 59% 29.77 in 5.0 mi SE 11.5 mph - N/A   Scattered Clouds
2:10 PM 87.8 °F 97.6 °F 75.2 °F 66% 29.77 in 3.7 mi SE 11.5 mph - N/A   Scattered Clouds
2:30 PM 89 °F - 76 °F 57% 29.80 in 6 mi SSE 4.6 mph - -   Partly Cloudy
2:40 PM 87.8 °F 97.6 °F 75.2 °F 66% 29.77 in 3.7 mi ESE 10.4 mph - N/A   Scattered Clouds
3:10 PM 87.8 °F 97.6 °F 75.2 °F 66% 29.74 in 3.7 mi SE 8.1 mph - N/A   Scattered Clouds
3:40 PM 87.8 °F 99.7 °F 77.0 °F 70% 29.74 in 3.7 mi ESE 9.2 mph - N/A   Partly Cloudy
4:10 PM 87.8 °F 99.7 °F 77.0 °F 70% 29.77 in 3.7 mi ESE 9.2 mph - N/A   Partly Cloudy
4:40 PM 86.0 °F 96.9 °F 77.0 °F 74% 29.77 in 3.7 mi SE 10.4 mph - N/A   Partly Cloudy
5:10 PM 86.0 °F 95.1 °F 75.2 °F 70% 29.77 in 3.7 mi East 8.1 mph - N/A   Partly Cloudy
5:30 PM 86 °F - 77 °F 68% 29.81 in 6 mi South 3.5 mph - -   Partly Cloudy
5:40 PM 86.0 °F 95.1 °F 75.2 °F 70% 29.80 in 3.7 mi East 6.9 mph - N/A   Partly Cloudy
6:10 PM 84.2 °F 92.3 °F 75.2 °F 74% 29.80 in 3.7 mi ESE 8.1 mph - N/A   Partly Cloudy
6:40 PM 84.2 °F 92.3 °F 75.2 °F 74% 29.80 in 3.7 mi South 9.2 mph - N/A   Scattered Clouds
7:10 PM 84.2 °F 92.3 °F 75.2 °F 74% 29.83 in 3.7 mi ESE 5.8 mph - N/A   Partly Cloudy
7:40 PM 84.2 °F 94.1 °F 77.0 °F 79% 29.86 in 3.7 mi ESE 6.9 mph - N/A   Partly Cloudy
8:10 PM 84.2 °F 94.1 °F 77.0 °F 79% 29.86 in 3.7 mi ESE 5.8 mph - N/A   Partly Cloudy
8:30 PM 85 °F - 77 °F 72% 29.91 in 2 mi Calm Calm - -   Scattered Clouds
8:40 PM 84.2 °F 94.1 °F 77.0 °F 79% 29.86 in 3.7 mi SE 6.9 mph - N/A   Partly Cloudy
9:10 PM 84.2 °F 94.1 °F 77.0 °F 79% 29.89 in 3.7 mi SSE 5.8 mph - N/A   Partly Cloudy
9:40 PM 84.2 °F 94.1 °F 77.0 °F 79% 29.89 in 3.7 mi SE 5.8 mph - N/A   Partly Cloudy
10:10 PM 84.2 °F 94.1 °F 77.0 °F 79% 29.89 in 3.7 mi SE 6.9 mph - N/A   Partly Cloudy
10:40 PM 84.2 °F 94.1 °F 77.0 °F 79% 29.89 in 3.7 mi SSE 4.6 mph - N/A   Scattered Clouds
11:10 PM 82.4 °F 90.9 °F 77.0 °F 84% 29.89 in 3.7 mi South 3.5 mph - N/A   Scattered Clouds
11:30 PM 82 °F - 79 °F 87% 29.91 in 2 mi Calm Calm - -   Scattered Clouds
11:40 PM 82.4 °F 90.9 °F 77.0 °F 84% 29.89 in 3.7 mi SSW 4.6 mph - N/A   Partly Cloudy